Location: Unspecified
(0.0000°N, 0.0000°E)
Time: 19:36:02
(UTC+02:00)

Vanguard 2 Rocket - Visible Passes

Search period start: 20 June 2018 00:00
Search period end: 30 June 2018 00:00
Orbit: 553 x 3328 km, 32.9° (Epoch: 19 June)

Date Brightness Start Highest point End Pass type
(mag) Time Alt. Az. Time Alt. Az. Time Alt. Az.
20 Jun 9.8 06:42:18 10° SSW 06:53:05 34° SE 07:08:51 10° E visible
20 Jun 6.6 20:41:30 10° NW 20:47:50 62° NNE 20:51:16 16° ESE visible
21 Jun 9.7 05:46:12 15° S 05:52:03 22° SE 06:03:09 10° E visible
21 Jun 7.7 21:57:06 10° W 22:01:12 25° SW 22:01:12 25° SW visible
22 Jun 10.1 04:50:14 12° SSE 04:51:13 12° SE 04:55:20 10° SE visible
22 Jun 9.6 06:56:02 10° SSW 07:07:18 48° SE 07:24:59 10° ENE visible
22 Jun 6.8 20:55:56 10° WNW 21:02:15 58° SW 21:05:17 19° SE visible
23 Jun 9.4 06:00:04 20° S 06:06:28 32° SE 06:20:27 10° E visible
23 Jun 8.8 22:14:20 10° SW 22:15:14 11° SW 22:15:14 11° SW visible
24 Jun 9.7 05:04:06 18° SSE 05:05:59 19° SE 05:14:46 10° ESE visible
24 Jun 9.3 07:09:55 10° SW 07:21:23 68° SE 07:40:12 10° ENE visible
24 Jun 8.1 21:11:15 10° W 21:16:25 26° SW 21:19:20 15° S visible
25 Jun 9.1 06:13:58 24° SSW 06:20:35 47° SE 06:36:32 10° ENE visible
26 Jun 9.2 05:18:01 28° SSE 05:20:17 30° SE 05:32:07 10° E visible
26 Jun 9.1 07:24:02 10° SW 07:35:35 89° NW 07:54:46 10° NE visible
26 Jun 8.7 21:28:14 10° WSW 21:30:34 12° SW 21:32:36 10° SSW visible
27 Jun 9.9 04:22:05 16° SE 04:22:05 16° SE 04:26:37 10° ESE visible
27 Jun 8.8 06:27:54 27° SW 06:34:38 68° SE 06:51:43 10° ENE visible
27 Jun 8.5 20:24:48 10° W 20:31:23 28° SW 20:35:50 10° SSE visible
28 Jun 8.6 05:31:57 40° S 05:34:19 45° SE 05:48:10 10° ENE visible
29 Jun 9.4 04:36:00 26° SE 04:36:00 26° SE 04:44:03 10° E visible
29 Jun 8.6 06:41:50 25° WSW 06:48:54 85° NW 07:06:13 10° NE visible
29 Jun 8.9 20:41:36 10° WSW 20:45:28 15° SW 20:48:34 10° S visible
